Weather History for Iron Mountain, MI

Change the Weather History Date:

Sunday, January 12, 2014

  Actual Average Record
Temperature  
Mean Temperature 28 °F -  
Max Temperature 33 °F 23 °F 46 °F (1986)
Min Temperature 23 °F 0 °F -25 °F (1984)
Degree Days  
Heating Degree Days 37    
Moisture  
Dew Point 23 °F    
Average Humidity 81    
Maximum Humidity 92    
Minimum Humidity 72    
Precipitation  
Precipitation 0.00 in - - ()
Sea Level Pressure  
Sea Level Pressure 29.54 in    
Wind  
Wind Speed 7 mph (South)    
Max Wind Speed 15 mph    
Max Gust Speed 21 mph    
Visibility 8 miles    
Events Snow    
Averages and records for this station are not official NWS values.
T = Trace of Precipitation, MM = Missing Value Source: NWS Daily Summary

Daily Weather History Graph

Daily Weather History Graph

Search for Another Location

Airport:

Trip Planner

Search our weather history database for the weather conditions in past years. The results will help you decide how hot, cold, wet, or windy it might be!

Date:

Astronomy

Jan. 12, 2014 Rise Set
Actual Time 7:31 AM CST 4:30 PM CST
Civil Twilight 6:57 AM CST 5:04 PM CST
Nautical Twilight 6:20 AM CST 5:41 PM CST
Astronomical Twilight 5:44 AM CST 6:17 PM CST
Moon 1:59 PM CST (1/12) 4:28 AM CST (1/12)
Length of Visible Light 10h 06m
Length of Day
8h 59m
Waxing Gibbous, 90% of the Moon is Illuminated
Jan 12
Waxing Gibbous
Jan 15
Full
Jan 23
Last Quarter
Jan 30
New
Feb 6
First Quarter

Hourly Weather History & Observations

Time (CST) Temp. Windchill Dew Point Humidity Pressure Visibility Wind Dir Wind Speed Gust Speed Precip Events Conditions
12:54 AM 28.9 °F 21.9 °F 21.9 °F 75% 29.62 in 10.0 mi West 6.9 mph - N/A   Overcast
1:54 AM 28.0 °F 22.8 °F 21.9 °F 78% 29.62 in 10.0 mi West 4.6 mph - N/A   Overcast
2:54 AM 27.0 °F 21.6 °F 21.0 °F 78% 29.65 in 10.0 mi West 4.6 mph - N/A   Overcast
3:36 AM 26.6 °F 21.2 °F 21.2 °F 80% 29.60 in 10.0 mi SW 4.6 mph - N/A   Overcast
3:54 AM 27.0 °F - 21.0 °F 78% 29.65 in 10.0 mi Calm Calm - N/A   Overcast
4:54 AM 26.1 °F - 21.9 °F 84% 29.64 in 10.0 mi Calm Calm - N/A   Mostly Cloudy
5:11 AM 26.6 °F 21.2 °F 21.2 °F 80% 29.58 in 10.0 mi SW 4.6 mph - N/A   Scattered Clouds
5:54 AM 24.1 °F 19.7 °F 21.0 °F 88% 29.64 in 10.0 mi SSE 3.5 mph - N/A   Clear
6:54 AM 23.0 °F 18.4 °F 21.0 °F 92% 29.63 in 10.0 mi SE 3.5 mph - N/A   Clear
7:54 AM 24.1 °F 17.0 °F 21.0 °F 88% 29.62 in 8.0 mi SSE 5.8 mph - N/A   Partly Cloudy
8:36 AM 24.8 °F 16.1 °F 21.2 °F 86% 29.58 in 7.0 mi SSE 8.1 mph - N/A   Overcast
8:54 AM 25.0 °F 14.8 °F 21.0 °F 85% 29.64 in 7.0 mi South 10.4 mph - N/A   Overcast
9:54 AM 26.1 °F 18.4 °F 21.0 °F 81% 29.64 in 7.0 mi SSE 6.9 mph - N/A   Overcast
10:15 AM 26.6 °F 18.2 °F 21.2 °F 80% 29.57 in 1.8 mi SE 8.1 mph - 0.00 in Snow Light Snow
10:29 AM 26.6 °F 17.5 °F 21.2 °F 80% 29.55 in 3.0 mi SE 9.2 mph - 0.00 in Snow Light Snow
10:49 AM 26.6 °F 16.2 °F 21.2 °F 80% 29.54 in 6.0 mi SE 11.5 mph - 0.00 in   Overcast
10:54 AM 26.1 °F 15.0 °F 21.9 °F 84% 29.58 in 6.0 mi SE 12.7 mph - 0.00 in   Overcast
11:14 AM 26.6 °F 16.2 °F 21.2 °F 80% 29.51 in 7.0 mi SE 11.5 mph - N/A   Overcast
11:44 AM 26.6 °F 14.7 °F 23.0 °F 86% 29.48 in 7.0 mi SE 15.0 mph - N/A   Overcast
11:54 AM 27.0 °F 16.7 °F 23.0 °F 85% 29.53 in 7.0 mi SSE 11.5 mph - N/A   Overcast
12:02 PM 26.6 °F 20.0 °F 23.0 °F 86% 29.49 in 7.0 mi SSE 5.8 mph - N/A   Overcast
12:34 PM 28.4 °F 18.5 °F 23.0 °F 80% 29.45 in 7.0 mi SSE 11.5 mph - N/A   Overcast
12:54 PM 28.0 °F 18.1 °F 23.0 °F 81% 29.48 in 7.0 mi SSE 11.5 mph - N/A   Mostly Cloudy
1:54 PM 30.9 °F 21.2 °F 24.1 °F 76% 29.47 in 10.0 mi South 12.7 mph - N/A   Mostly Cloudy
2:01 PM 30.2 °F 19.8 °F 24.8 °F 80% 29.43 in 10.0 mi South 13.8 mph 20.7 mph N/A   Scattered Clouds
2:54 PM 33.1 °F 23.9 °F 25.0 °F 72% 29.46 in 10.0 mi South 12.7 mph - N/A   Clear
3:54 PM 32.0 °F 24.8 °F 25.0 °F 75% 29.47 in 10.0 mi South 8.1 mph - N/A   Clear
4:54 PM 32.0 °F 26.4 °F 26.1 °F 79% 29.47 in 10.0 mi South 5.8 mph - N/A   Clear
5:54 PM 33.1 °F 26.9 °F 26.1 °F 75% 29.47 in 10.0 mi South 6.9 mph - N/A   Partly Cloudy
6:54 PM 33.1 °F 24.4 °F 26.1 °F 75% 29.47 in 10.0 mi South 11.5 mph - N/A   Clear
7:54 PM 32.0 °F 24.8 °F 26.1 °F 79% 29.48 in 10.0 mi South 8.1 mph - N/A   Clear
8:54 PM 32.0 °F 27.5 °F 26.1 °F 79% 29.47 in 10.0 mi South 4.6 mph - N/A   Partly Cloudy
9:54 PM 30.0 °F 25.2 °F 26.1 °F 85% 29.50 in 10.0 mi SSE 4.6 mph - N/A   Clear
10:54 PM 30.0 °F 26.5 °F 26.1 °F 85% 29.47 in 10.0 mi SSE 3.5 mph - N/A   Clear
11:54 PM 30.0 °F - 27.0 °F 88% 29.48 in 10.0 mi Calm Calm - N/A   Clear